Weather History for Tallahassee, FL

Change the Weather History Date:

Wednesday, August 21, 2013

  Actual Average Record
Temperature  
Mean Temperature 83 °F 82 °F  
Max Temperature 93 °F 91 °F 99 °F (1968)
Min Temperature 72 °F 72 °F 60 °F (1991)
Degree Days  
Heating Degree Days 0    
Month to date heating degree days 0  
Since 1 June heating degree days 0  
Since 1 July heating degree days 0  
Cooling Degree Days 18    
Month to date cooling degree days 386  
Year to date cooling degree days 1871  
Since 1 June cooling degree days 1409  
Growing Degree Days 32 (Base 50)    
Moisture  
Dew Point 70 °F    
Average Humidity 68    
Maximum Humidity 87    
Minimum Humidity 49    
Precipitation  
Precipitation 0.02 in 0.23 in 1.60 in (1979)
Month to date precipitation 6.74 5.30  
Year to date precipitation 51.41 41.86  
Sea Level Pressure  
Sea Level Pressure 30.12 in    
Wind  
Wind Speed 4 mph (East)    
Max Wind Speed 20 mph    
Max Gust Speed 26 mph    
Visibility 10 miles    
Events Rain , Thunderstorm    
T = Trace of Precipitation, MM = Missing Value Source: NWS Daily Summary

Daily Weather History Graph

Daily Weather History Graph

Search for Another Location

Airport:

Trip Planner

Search our weather history database for the weather conditions in past years. The results will help you decide how hot, cold, wet, or windy it might be!

Date:

Astronomy

Aug. 21, 2013 Rise Set
Actual Time 7:07 AM EDT 8:12 PM EDT
Civil Twilight 6:43 AM EDT 8:37 PM EDT
Nautical Twilight 6:13 AM EDT 9:06 PM EDT
Astronomical Twilight 5:42 AM EDT 9:37 PM EDT
Moon 8:29 PM EDT 7:40 AM EDT
Length of Visible Light 13h 54m
Length of Day
13h 04m
Full, 100% of the Moon is Illuminated
Aug 21
Full
Aug 28
Last Quarter
Sep 5
New
Sep 12
First Quarter
Sep 19
Full

Hourly Weather History & Observations

Time (EDT) Temp. Heat Index Dew Point Humidity Pressure Visibility Wind Dir Wind Speed Gust Speed Precip Events Conditions
12:53 AM 75.0 °F - 72.0 °F 90% 30.11 in 10.0 mi SE 4.6 mph - N/A   Clear
1:53 AM 75.0 °F - 70.0 °F 84% 30.12 in 10.0 mi Calm Calm - N/A   Clear
2:53 AM 73.9 °F - 70.0 °F 87% 30.10 in 10.0 mi NE 3.5 mph - N/A   Clear
3:53 AM 73.0 °F - 69.1 °F 87% 30.09 in 10.0 mi Calm Calm - N/A   Clear
4:53 AM 73.9 °F - 69.1 °F 85% 30.09 in 10.0 mi Calm Calm - N/A   Clear
5:53 AM 73.0 °F - 69.1 °F 87% 30.09 in 10.0 mi Calm Calm - N/A   Clear
6:53 AM 73.0 °F - 69.1 °F 87% 30.12 in 10.0 mi North 3.5 mph - N/A   Partly Cloudy
7:53 AM 73.9 °F - 70.0 °F 87% 30.14 in 10.0 mi Calm Calm - N/A   Partly Cloudy
8:53 AM 78.1 °F - 71.1 °F 79% 30.14 in 10.0 mi East 4.6 mph - N/A   Partly Cloudy
9:53 AM 81.0 °F 85.2 °F 72.0 °F 74% 30.15 in 10.0 mi Variable 4.6 mph - N/A   Partly Cloudy
10:53 AM 84.9 °F 91.4 °F 73.0 °F 67% 30.15 in 10.0 mi ESE 5.8 mph - N/A   Partly Cloudy
11:53 AM 88.0 °F 93.8 °F 71.1 °F 57% 30.15 in 10.0 mi East 8.1 mph - N/A   Partly Cloudy
12:53 PM 89.1 °F 94.1 °F 70.0 °F 53% 30.14 in 10.0 mi East 5.8 mph - N/A   Partly Cloudy
1:53 PM 91.0 °F 95.6 °F 69.1 °F 48% 30.12 in 10.0 mi ENE 6.9 mph - N/A   Mostly Cloudy
2:53 PM 91.0 °F 95.6 °F 69.1 °F 48% 30.10 in 10.0 mi Variable 6.9 mph - N/A   Mostly Cloudy
3:18 PM 91.4 °F 96.8 °F 69.8 °F 49% 30.09 in 10.0 mi SE 8.1 mph - 0.00 in Rain , Thunderstorm Light Thunderstorms and Rain
3:53 PM 86.0 °F 95.1 °F 75.0 °F 70% 30.09 in 10.0 mi ESE 10.4 mph - 0.02 in Rain , Thunderstorm Light Thunderstorms and Rain
4:53 PM 81.0 °F 84.9 °F 71.1 °F 72% 30.11 in 10.0 mi East 10.4 mph - N/A Thunderstorm Thunderstorm
5:53 PM 79.0 °F - 70.0 °F 74% 30.12 in 10.0 mi NE 5.8 mph - N/A   Mostly Cloudy
6:53 PM 79.0 °F - 70.0 °F 74% 30.11 in 10.0 mi East 6.9 mph - N/A   Scattered Clouds
7:53 PM 78.1 °F - 71.1 °F 79% 30.12 in 10.0 mi ENE 3.5 mph - N/A   Scattered Clouds
8:53 PM 77.0 °F - 71.1 °F 82% 30.10 in 10.0 mi Calm Calm - N/A   Partly Cloudy
9:53 PM 75.9 °F - 70.0 °F 82% 30.12 in 10.0 mi Calm Calm - N/A   Clear
10:53 PM 75.0 °F - 70.0 °F 84% 30.12 in 10.0 mi Calm Calm - N/A   Clear
11:53 PM 75.0 °F - 70.0 °F 84% 30.13 in 10.0 mi Calm Calm - N/A   Clear